[[{"header":{"parameterUnit":"m.s-1","parameterCategory":1,"la1":30.2992,"la2":30.254,"lo1":-89.0895,"lo2":-89.0443,"dy":0.0025,"dx":0.0025,"nx":19,"ny":19,"refTime":"2026-04-04T03:00:00:Z","depth":0,"parameterNumber":2,"parameterNumberName":"U-component_of_WINDS"},"data":[0,0,0,-3.8873,-3.8876,-3.9002,-3.9003,-3.9169,-3.917,0,0,0,0,0,0,0,0,0,0,0,-3.8838,-3.8839,-3.8873,-3.8876,-3.9002,-3.9003,-3.9169,-3.917,0,0,0,0,0,0,0,0,0,0,0,-3.8838,-3.8839,-3.8841,-3.8877,-3.9002,-3.9003,-3.9168,-3.9071,0,0,0,0,0,0,0,0,0,0,-3.8948,-3.8918,-3.8839,-3.8841,-3.8878,-3.9002,-3.9003,-3.9067,-3.9077,-3.9114,0,-3.9146,0,-3.9161,-3.9182,-3.9182,0,0,0,-3.8875,-3.8909,-3.8941,-3.8841,-3.8879,-3.9002,-3.8945,-3.9073,-3.9085,-3.9128,-3.9148,-3.9154,-3.9164,-3.9183,-3.9184,-3.9397,-3.9398,0,0,-3.8868,-3.8862,-3.8932,-3.8949,-3.8929,-3.8941,-3.8949,-3.908,-3.9102,-3.9149,-3.9158,-3.9166,-3.9184,-3.9185,-3.9396,-3.9397,0,0,0,-3.8849,-3.8857,-3.8886,-3.8942,-3.8965,-3.8945,-3.8954,-3.9096,-3.9106,-3.916,-3.9168,-3.9185,-3.9187,-3.9395,-3.9397,-3.9443,0,0,0,-3.8844,-3.8846,-3.8883,-3.8881,-3.8962,-3.9032,-3.8967,-3.9097,-3.9112,-3.9167,-3.9185,-3.9189,-3.9394,-3.9396,-3.9439,-3.9465,0,0,0,-3.8829,-3.8844,-3.8863,-3.888,-3.8934,-3.903,-3.9047,-3.91,-3.9117,-3.9182,-3.9189,-3.9393,-3.9395,-3.9436,-3.946,-3.9519,0,0,0,-3.8811,-3.8903,-3.8864,-3.8971,-3.8933,-3.9058,-3.9046,-3.914,-3.9201,-3.9186,-3.9394,-3.9396,-3.9435,-3.9456,-3.9515,-3.9566,-3.9587,0,0,-3.8924,-3.8916,-3.898,-3.8948,-3.9079,-3.9039,-3.9177,-3.9239,-3.9251,-3.9348,-3.9353,-3.9441,-3.9459,-3.9518,-3.9712,-3.9729,0,0,0,-3.9013,-3.9058,-3.9094,-3.9153,-3.9203,-3.9248,-3.929,-3.9314,-3.9397,-3.9299,-3.9479,-3.9491,-3.9526,-3.955,-3.9564,-3.9594,-3.9408,-3.9408,-3.9408,-3.9162,-3.9173,-3.9279,-3.9305,-3.9363,-3.9406,-3.9454,-3.9493,-3.9486,-3.9529,-3.9557,-3.9673,-3.9702,-3.9713,-3.9744,-3.9587,-3.9587,-3.9587,-3.9587,-3.9327,-3.9392,-3.9384,-3.9482,-3.9494,-3.9577,-3.9624,-3.9617,-3.9696,-3.9653,-3.9684,-3.9633,-3.9731,-3.9758,-3.9591,-3.959,-3.959,-3.959,-3.9589,-3.9423,-3.9456,-3.9484,-3.9572,-3.9638,-3.9663,-3.974,-3.9748,-3.9757,-3.9788,-3.9818,-3.9817,-3.9816,-3.9802,-3.9803,-3.9803,-3.9803,-3.9804,-3.9804,-3.9511,-3.9542,-3.9605,-3.9668,-3.9708,-3.9761,-3.9808,-3.9848,-3.9894,-3.9893,-3.9894,-3.9883,-3.9739,-3.9701,-3.981,-3.9809,-3.9808,-3.9808,-3.9807,-3.9669,-3.9636,-3.9733,-3.9773,-3.9849,-3.9915,-3.9926,-4.0006,-4.004,-4.0078,-4.0063,-3.9956,-3.9948,-3.9937,-3.9905,-4.006,-4.006,-4.006,-4.006,-3.9749,-3.9748,-3.985,-3.9913,-3.9977,-3.9997,-4.0109,-4.0147,-4.0182,-4.0204,-4.0184,-4.0144,-4.0132,-4.0132,-4.0116,-4.0087,-4.0285,-4.0285,-4.0285,-3.9846,-3.9852,-3.9943,-3.9977,-4.0038,-4.0089,-4.0194,-4.0268,-4.0301,-4.0295,-4.0221,-4.0212,-4.0148,-4.0127,-4.0115,-4.0091,-4.0037,0,0]},{"header":{"parameterUnit":"m.s-1","parameterCategory":1,"la1":30.2992,"la2":30.254,"lo1":-89.0895,"lo2":-89.0443,"dy":0.0025,"dx":0.0025,"nx":19,"ny":19,"refTime":"2026-04-04T03:00:00:Z","depth":0,"parameterNumber":3,"parameterNumberName":"V-component_of_WINDS"},"data":[0,0,0,2.8181,2.8182,2.8262,2.8262,2.8354,2.8355,0,0,0,0,0,0,0,0,0,0,0,2.8153,2.8153,2.818,2.8182,2.8261,2.8262,2.8354,2.8355,0,0,0,0,0,0,0,0,0,0,0,2.8153,2.8153,2.8154,2.8183,2.8261,2.8262,2.8354,2.8297,0,0,0,0,0,0,0,0,0,0,2.8222,2.8192,2.8153,2.8154,2.8183,2.8261,2.8262,2.8295,2.8301,2.8315,0,2.8328,0,2.8343,2.8361,2.8361,0,0,0,2.8185,2.8187,2.8213,2.8154,2.8184,2.8261,2.8226,2.8298,2.8305,2.8323,2.833,2.8333,2.8345,2.8362,2.8362,2.8443,2.8443,0,0,2.818,2.8164,2.8208,2.8217,2.8206,2.8224,2.8229,2.8302,2.8307,2.833,2.8336,2.8347,2.8362,2.8363,2.8442,2.8443,0,0,0,2.8166,2.8161,2.8185,2.8213,2.8228,2.8226,2.8232,2.8304,2.8313,2.8337,2.8348,2.8363,2.8364,2.8442,2.8442,2.8441,0,0,0,2.8164,2.8153,2.8183,2.8174,2.8226,2.8267,2.8232,2.8308,2.8317,2.8347,2.8363,2.8365,2.8442,2.8442,2.844,2.8442,0,0,0,2.8149,2.8151,2.8162,2.8173,2.8207,2.8266,2.828,2.8311,2.8324,2.8361,2.8365,2.8442,2.8442,2.844,2.8441,2.8459,0,0,0,2.8128,2.8157,2.8161,2.8197,2.8206,2.8265,2.828,2.8324,2.8356,2.8363,2.8442,2.8442,2.8439,2.844,2.8458,2.8471,2.8475,0,0,2.8155,2.8159,2.8182,2.8188,2.8243,2.8255,2.8309,2.8352,2.8369,2.8417,2.8419,2.844,2.8441,2.8459,2.8503,2.8506,0,0,0,2.8185,2.8201,2.8219,2.825,2.8286,2.8317,2.8354,2.8371,2.8413,2.8391,2.8452,2.8453,2.8464,2.8471,2.8473,2.8484,2.8445,2.8445,2.8445,2.8197,2.8221,2.8261,2.8294,2.8324,2.8365,2.8391,2.842,2.8432,2.8447,2.846,2.8485,2.8492,2.8494,2.8505,2.8469,2.8469,2.8469,2.8469,2.8239,2.8265,2.8285,2.833,2.8355,2.8392,2.8433,2.8441,2.848,2.8475,2.8486,2.8479,2.8497,2.8507,2.8469,2.8469,2.8469,2.8469,2.8469,2.8249,2.8266,2.8288,2.8338,2.8373,2.8406,2.8443,2.8464,2.8483,2.8494,2.8511,2.8511,2.8514,2.8501,2.8501,2.8501,2.8501,2.8501,2.8501,2.8251,2.8276,2.8306,2.8349,2.8373,2.8407,2.845,2.8474,2.8506,2.8517,2.8518,2.8529,2.8495,2.8485,2.8503,2.8502,2.8502,2.8502,2.8502,2.8283,2.828,2.8325,2.835,2.8404,2.8438,2.8465,2.8513,2.8536,2.8553,2.8564,2.8535,2.854,2.8538,2.8531,2.8559,2.8559,2.8559,2.8559,2.8291,2.8297,2.835,2.8388,2.8428,2.8458,2.8509,2.8544,2.8578,2.8594,2.8593,2.8585,2.8582,2.8589,2.8586,2.8579,2.8619,2.8619,2.8619,2.8312,2.8323,2.8363,2.8399,2.8443,2.8481,2.853,2.8572,2.861,2.8622,2.8606,2.8604,2.8591,2.8586,2.8594,2.8589,2.8577,0,0]}]]